Probability
0 0 0 1 1 1 1 2 3 3 3 3 2 1 0 0 0 0 0 0 0 0 0 0 0 0 0 0 0 0 0 0 0 0 0 0 0 0 0 0 0 0 0
0 0 0 0 1 1 1 1 2 2 2 2 1 0 0 0 0 0 0 0 0 0 0 0 0 0 0 0 0 0 0 0 0 0 0 0 0 0 0 0 0 0 0
0 0 0 0 1 2 2 1 1 1 1 1 0 0 0 0 0 0 0 0 0 0 0 0 0 0 0 0 0 0 0 0 0 0 0 0 0 0 0 0 0 0 0
0 0 0 1 1 3 3 1 0 0 0 0 0 0 0 0 0 0 0 0 0 0 0 0 0 0 0 0 0 0 0 0 0 0 0 0 0 0 0 0 0 0 0
0 0 1 2 3 3 2 1 0 0 0 0 0 0 0 0 0 0 0 0 0 0 0 0 0 0 0 0 0 0 0 0 0 0 0 0 0 0 0 0 0 0 0
0 1 2 3 3 3 1 1 0 0 0 0 0 0 0 0 0 0 0 0 0 0 0 0 0 0 0 0 0 0 0 0 0 0 0 0 0 0 0 0 0 0 0
0 1 2 3 3 2 1 0 0 0 0 0 0 0 0 0 0 0 0 0 0 0 0 0 0 0 0 0 0 0 0 0 0 0 0 0 0 0 0 0 0 0 0
0 1 2 2 1 1 0 0 0 0 0 0 0 0 0 0 0 0 0 0 0 0 0 0 0 0 0 0 0 0 0 0 0 0 0 0 0 0 0 0 0 0 0
0 0 1 1 0 0 0 0 0 0 0 0 0 0 0 0 0 0 0 0 0 0 0 0 0 0 0 0 0 0 0 0 0 0 0 0 0 0 0 0 0 0 0
0 0 0 0 0 0 0 0 0 0 0 0 0 0 0 0 0 0 0 0 0 0 0 0 0 0 0 0 0 0 0 0 0 0 0 0 0 0 0 0 0 0 0
0 0 0 0 0 0 0 0 0 0 0 0 0 0 0 0 0 0 0 0 0 0 0 0 0 0 0 0 0 0 0 0 0 0 0 0 0 0 0 0 0 0 0
0 0 0 0 0 0 0 0 0 0 0 0 0 0 0 0 0 0 0 0 0 0 0 0 0 0 0 0 0 0 0 0 0 0 0 0 0 0 0 0 0 0 0
0 0 0 0 0 0 0 0 0 0 0 0 0 0 0 0 0 0 0 0 0 0 0 0 0 0 0 0 0 0 0 0 0 0 0 0 0 0 0 0 0 0 0
0 0 0 0 0 0 0 0 0 0 0 0 0 0 0 0 0 0 0 0 0 0 0 0 0 0 0 0 0 0 0 0 0 0 0 0 0 0 0 0 0 0 0
0 0 0 0 0 0 0 0 0 0 0 0 0 0 0 0 0 0 0 0 0 0 0 0 0 0 0 0 0 0 0 0 0 0 0 0 0 0 0 0 0 0 0
0 0 0 0 0 0 0 0 0 0 0 0 0 0 0 0 0 0 0 0 0 0 0 0 0 0 0 0 0 0 0 0 0 0 0 0 0 0 0 0 0 0 0
0 0 0 0 0 0 0 0 0 0 0 0 0 0 0 0 0 0 0 0 0 0 0 0 0 0 0 0 0 0 0 0 0 0 0 0 0 0 0 0 0 0 0
0 0 0 0 0 0 0 0 0 0 0 0 0 0 0 0 0 0 0 0 0 0 0 0 0 0 0 0 0 0 0 0 0 0 0 0 0 0 0 0 0 0 0
0 0 0 0 0 0 0 0 0 0 0 0 0 0 0 0 0 0 0 0 0 0 0 0 0 0 0 0 0 0 0 0 0 0 0 0 0 0 0 0 0 0 0
0 0 0 0 0 0 0 0 0 0 0 0 0 0 0 0 0 0 0 0 0 0 0 0 0 0 0 0 0 0 0 0 0 0 0 0 0 0 0 0 0 0 0
0 0 0 0 0 0 0 0 0 0 0 0 0 0 0 0 0 0 0 0 0 0 0 0 0 0 0 0 0 0 0 0 0 0 0 0 0 0 0 0 0 0 0
0 0 0 0 0 0 0 0 0 0 0 0 0 0 0 0 0 0 0 0 0 0 0 0 0 0 0 0 0 0 0 0 0 0 0 0 0 0 0 0 0 0 0
0 0 0 0 0 0 0 0 0 0 0 0 0 0 0 0 0 0 0 0 0 0 0 0 0 0 0 0 0 0 0 0 0 0 0 0 0 0 0 0 0 0 0
0 0 0 0 0 0 0 0 0 0 0 0 0 0 0 0 0 0 0 0 0 0 0 0 0 0 0 0 0 0 0 0 0 0 0 0 0 0 0 0 0 0 0
0 0 0 0 0 0 0 0 0 0 0 0 0 0 0 0 0 0 0 0 0 0 0 0 0 0 0 0 0 0 0 0 0 0 0 0 0 0 0 0 0 0 0
0 0 0 0 0 0 0 0 0 0 0 0 0 0 0 0 0 0 0 0 0 0 0 0 0 0 0 0 0 0 0 0 0 0 0 0 0 0 0 0 0 0 0
Wind_Speed
3 4 5 4 4 4 4 4 4 3 4 3 3 3 2 2 2 2 1 2 2 1 1 1 2 2 2 2 2 2 2 3 7 7 4 4 5 6 7 6 6 6 8
3 4 4 4 4 4 4 3 3 3 3 3 3 3 2 2 1 2 2 2 2 2 2 2 3 2 2 2 2 3 3 4 5 8 7 5 6 6 6 7 7 7 7
3 4 4 4 4 4 4 3 3 3 3 3 3 2 2 1 1 1 2 2 2 2 2 2 3 3 4 3 3 4 4 4 4 6 8 6 5 5 6 7 7 6 8
4 4 4 3 4 4 4 3 3 3 3 3 2 1 1 1 1 1 1 1 1 1 2 2 3 3 4 4 4 4 4 4 5 5 6 6 6 5 5 6 7 5 7
4 4 3 3 3 4 4 3 3 3 2 2 2 1 1 1 1 1 1 1 1 1 2 2 3 4 6 5 5 4 4 4 5 5 6 6 6 5 5 5 7 7 7
4 4 3 4 4 3 3 3 3 3 2 2 1 1 0 1 1 2 1 1 1 1 2 3 3 4 6 8 9 9 8 6 6 6 6 7 8 7 6 6 7 7 7
3 3 3 4 4 3 3 3 3 3 2 2 1 1 0 1 2 2 3 2 1 1 2 3 4 4 6 5 7 9 9 11 10 8 7 8 8 7 7 8 7 7 8
3 3 3 3 3 3 3 3 2 2 2 1 1 1 0 1 3 3 3 2 1 2 2 3 4 5 5 6 5 5 6 6 8 7 7 8 8 8 7 7 8 8 8
2 2 2 3 3 3 3 2 2 2 1 1 1 1 0 2 3 3 3 1 1 2 3 3 4 5 8 10 6 5 7 6 8 10 11 11 13 13 10 5 5 6 8
2 2 2 2 3 3 3 2 1 2 1 1 0 0 1 2 3 4 3 1 2 2 3 4 6 7 10 10 5 5 7 7 6 7 8 9 8 9 11 6 5 6 6
1 2 2 2 2 3 2 2 2 1 1 1 0 1 1 2 3 3 4 2 2 3 3 4 4 9 11 10 8 5 8 8 6 6 6 6 5 5 5 5 5 5 6
2 2 2 1 1 2 2 2 2 2 2 1 0 1 1 2 3 3 5 5 5 3 3 4 5 10 11 10 8 8 10 8 4 4 5 5 5 5 5 5 6 6 6
2 2 1 1 1 2 2 2 1 1 1 1 1 1 2 2 2 5 5 6 6 4 4 7 8 10 9 7 8 10 8 4 4 4 5 5 5 5 5 5 5 5 5
1 1 1 1 1 1 1 1 2 2 2 2 1 1 2 2 2 2 2 3 4 4 4 5 8 8 7 7 7 5 4 3 4 4 5 4 4 4 4 4 4 4 4
1 1 1 1 1 1 0 0 1 2 3 2 2 2 2 3 4 6 4 3 3 3 4 3 3 3 3 4 4 4 3 4 4 4 4 4 4 4 4 4 3 4 4
2 1 1 1 1 0 1 2 3 2 2 3 3 3 3 4 6 6 6 6 6 6 4 2 3 3 4 4 4 4 4 4 4 4 4 4 4 5 5 4 4 3 5
2 1 0 0 0 0 0 0 1 3 4 4 3 4 4 5 5 6 6 6 6 5 2 3 3 4 4 4 4 4 4 4 4 4 4 4 4 4 4 5 4 4 5
1 1 0 0 0 0 1 1 1 1 2 3 4 4 5 5 5 5 5 4 3 3 2 3 4 4 4 4 4 4 4 4 4 4 4 4 4 4 4 4 4 4 5
1 0 0 0 0 0 0 1 1 1 1 2 3 3 4 5 5 5 5 2 3 3 3 3 4 4 4 4 4 4 4 4 4 4 4 4 4 4 4 4 4 6 6
0 0 1 0 0 0 1 1 1 1 2 2 2 3 3 3 2 3 3 2 3 3 4 4 4 4 4 4 4 4 4 4 4 4 4 4 4 4 4 5 4 4 4
1 1 1 1 0 1 1 1 2 1 1 2 3 4 5 2 2 3 3 3 3 4 4 4 4 4 4 4 4 4 4 4 4 3 3 4 3 3 3 3 4 4 4
0 0 1 1 1 1 1 1 1 2 2 2 3 4 5 3 2 3 3 4 4 4 4 4 4 4 4 4 4 4 4 4 4 3 3 3 3 3 3 3 3 4 4
0 1 1 1 1 2 2 2 2 2 2 2 3 3 3 3 3 3 4 4 4 4 3 3 4 4 3 3 3 3 4 4 4 4 4 4 3 3 3 3 4 4 4
1 1 1 1 1 1 1 2 2 2 2 2 2 3 3 3 3 4 4 4 4 4 4 3 4 5 6 5 3 3 3 4 4 4 4 4 4 4 3 3 3 4 4
1 1 1 1 1 2 2 2 2 2 2 3 3 3 3 3 4 4 4 3 4 4 5 4 4 4 5 6 5 4 6 8 8 5 3 3 3 3 3 3 3 4 4
1 1 1 1 2 1 1 2 2 2 2 3 3 3 3 4 4 4 4 3 4 4 4 4 5 5 6 5 5 7 9 8 8 8 4 2 2 2 2 2 3 3 3
Wind_Direction
152 155 152 155 152 143 147 156 158 152 150 151 155 153 158 170 170 165 203 201 191 233 262 251 267 273 276 280 273 267 264 257 272 285 283 291 290 297 303 299 297 294 298
145 142 146 140 136 137 144 149 147 144 146 149 146 143 153 159 161 179 208 219 208 231 256 262 273 283 280 279 274 270 270 265 267 284 292 293 288 292 295 296 300 299 292
133 134 136 136 139 143 146 140 135 132 131 131 131 143 159 171 175 200 210 222 231 248 256 261 274 274 275 275 273 272 274 280 269 273 284 287 287 292 298 294 291 290 295
125 126 134 146 144 141 135 131 129 129 130 131 134 147 156 164 179 193 189 204 244 275 275 271 274 268 268 272 275 273 278 281 279 278 284 289 290 292 294 298 303 300 299
124 125 135 132 127 126 127 128 124 122 121 124 119 107 118 174 195 192 194 223 241 279 293 286 282 290 290 289 290 283 284 283 286 287 287 292 294 301 299 295 298 302 296
126 132 131 127 125 127 132 128 122 115 112 112 124 134 127 306 287 284 282 234 256 270 289 297 298 300 301 304 304 300 294 287 285 282 284 285 288 289 291 293 295 303 301
124 127 131 132 130 132 129 124 125 123 117 118 136 134 176 264 292 303 312 312 266 276 285 292 302 303 306 293 294 298 296 294 289 281 279 280 283 283 286 287 286 287 285
126 131 134 134 134 133 133 139 136 132 137 143 160 166 173 285 309 322 327 350 312 293 286 281 283 287 287 292 288 292 290 288 285 281 271 273 277 277 272 277 284 288 282
124 135 143 149 148 146 151 158 155 142 142 158 179 181 229 298 313 317 321 318 304 295 286 285 286 283 293 304 302 297 297 294 296 295 292 292 294 294 293 291 292 294 295
139 146 139 147 154 161 169 167 155 150 162 156 83 298 271 287 294 309 318 295 289 293 294 291 295 298 302 307 301 293 293 294 298 303 301 300 296 294 297 281 274 281 290
124 114 115 128 156 167 163 161 151 138 116 96 4 303 275 283 294 304 308 301 270 284 292 296 294 304 307 308 308 293 291 300 298 296 296 295 295 291 285 274 261 259 270
97 105 112 112 154 149 149 154 149 142 132 153 240 301 298 284 300 298 305 309 303 291 288 288 290 303 307 310 308 306 310 316 305 299 298 296 297 295 293 288 278 265 256
102 113 124 119 124 150 153 155 151 157 171 214 221 264 295 295 293 304 305 309 307 302 286 291 301 308 312 309 308 313 317 310 299 297 296 296 295 293 295 297 293 285 280
106 112 121 128 109 100 143 171 178 193 201 221 233 255 283 293 290 285 284 294 301 302 301 301 309 312 311 308 310 313 310 296 295 288 293 294 297 299 297 298 300 307 305
90 87 85 88 97 49 13 243 233 222 219 224 225 229 248 270 277 294 301 292 292 292 309 308 310 310 310 308 307 305 302 301 302 296 296 303 304 303 302 302 297 305 299
91 66 61 65 61 56 27 2 358 340 318 316 312 299 290 294 305 308 310 311 314 317 324 306 300 298 297 300 305 307 304 301 300 300 299 299 302 304 306 307 304 302 301
129 126 105 87 78 328 331 330 337 350 354 347 333 321 318 315 317 317 319 324 323 329 320 298 295 295 296 297 297 298 299 300 299 296 295 295 298 301 304 305 306 307 303
119 122 107 181 212 235 265 286 276 290 316 325 324 318 321 323 322 321 326 335 324 328 301 294 295 296 295 292 291 293 295 299 297 294 291 292 292 295 300 303 304 303 305
95 132 162 172 214 255 274 294 288 281 288 300 314 314 319 321 322 324 334 325 298 300 300 294 292 292 291 289 286 287 287 287 289 292 291 293 293 295 299 301 302 305 308
69 23 20 40 21 336 307 291 283 274 278 285 291 296 306 319 318 316 319 308 299 296 296 296 296 292 289 287 286 287 289 287 288 287 288 290 290 290 293 300 302 303 303
4 360 15 12 315 285 274 275 280 280 284 291 292 296 312 316 303 301 303 301 296 295 296 295 294 293 290 286 283 284 286 286 286 286 288 287 288 291 294 296 300 301 300
30 345 327 303 293 292 287 282 289 286 285 291 303 307 311 320 302 299 298 299 298 295 292 291 290 288 286 284 283 285 286 287 287 286 285 285 284 287 291 295 300 303 301
28 341 331 320 309 307 323 320 307 296 294 297 302 310 311 309 304 302 303 304 303 302 301 296 295 297 297 289 280 275 277 279 280 277 281 285 285 287 288 292 298 302 305
350 337 324 320 322 318 310 306 300 297 299 302 306 308 307 306 306 307 308 307 309 308 307 303 297 296 298 301 296 288 282 284 284 276 273 275 280 283 284 287 293 295 298
4 340 323 318 315 308 304 302 299 302 306 307 308 309 310 309 309 310 311 311 312 310 310 307 301 299 301 304 303 297 296 300 301 297 281 271 273 276 279 284 290 297 299
350 335 326 322 310 295 288 290 295 300 302 307 310 308 307 307 308 311 312 312 314 311 310 308 304 303 304 303 300 302 307 310 312 311 304 287 281 285 292 289 293 296 301